Satellite-Ground Cal/Val Site Overpasses Predictions

Prediction of Satellite NPP Overpassing Cal/Val Site: Antarctic Dome C

Ground Cal/Val Site Location: Latitude: -75.10, Longitude: 123.35; Satellite-Ground Site NADIR distance within 100 km.

Table of predicted overpasses for the next 14.0 days since TLE Epoch: 5/1/2021
Interval Starting Time Ending Time Minimum Distance Time Minimum Distance (km)
1 05/01/2021 14:35:27 05/01/2021 14:35:40 05/01/2021 14:35:33 87.47
2 05/02/2021 07:36:58 05/02/2021 07:37:26 05/02/2021 07:37:12 32.82
3 05/03/2021 07:18:15 05/03/2021 07:18:33 05/03/2021 07:18:24 77.28
4 05/05/2021 15:00:31 05/05/2021 15:00:55 05/05/2021 15:00:43 56.78
5 05/06/2021 14:41:41 05/06/2021 14:42:06 05/06/2021 14:41:53 52.26
6 05/07/2021 07:43:23 05/07/2021 07:43:44 05/07/2021 07:43:33 68.45
7 05/08/2021 07:24:31 05/08/2021 07:24:57 05/08/2021 07:24:44 39.48
8 05/10/2021 15:06:59 05/10/2021 15:07:07 05/10/2021 15:07:03 94.77
9 05/11/2021 14:48:00 05/11/2021 14:48:29 05/11/2021 14:48:14 16.33
